Home > Weather > Selkirk > Past weeks

Flag for Canada Weather for the Past 2 Weeks in Selkirk, Manitoba, Canada

Now
7 °F

Frigid.


Feels Like: 7 °F
Forecast: 4 / 19 °F
Wind: 2 mph from Northwest

Location: Winnipeg The Forks Man

Current Time: Feb 13, 2016 at 8:41:32 PM

Latest Report: Feb 13, 2016 at 7:00 PM


Visibility: N/A

Pressure: 30.25 "Hg

Humidity: N/A

Dew point: N/A

Location of SelkirkLocation

Historic Weather in Selkirk — Graph

°F

Selkirk Temperature Yesterday

Maximum temperature yesterday: 0 °F (at 12:00 AM)
Minimum temperature yesterday: -13 °F (at 8:00 AM)
Average temperature yesterday: -7 °F

High & Low Weather Summary for the Past Weeks

 TemperatureHumidityPressure
High38 °F (Jan 29, 9:00 PM)99% (Feb 7, 7:00 AM)30.77 "Hg (Feb 7, 7:00 AM)
Low-16 °F (Feb 13, 7:00 AM)43% (Feb 13, 4:00 PM)29.19 "Hg (Jan 30, 1:00 AM)
Average12 °F75%30.10 "Hg
* Reported Jan 29 7:00 PM — Feb 13 7:00 PM, Selkirk, Weather by CustomWeather, © 2016

Note: Actual official high and low records may vary slightly from our data, if they occured in-between our weather recording intervals... More about our weather records

Advertising

Selkirk Weather History for the Previous 24 Hours

 ConditionsComfort  
Time TempWeatherWind HumidityBarometerVisibility
7:00 PM
Sat, Feb 13
7 °FFrigid.2 mphN/A30.25 "HgN/A
6:00 PM6 °FFrigid.2 mph46%30.28 "HgN/A
5:00 PM6 °FFrigid.3 mph45%30.31 "HgN/A
4:00 PM8 °FFrigid.7 mph43%30.35 "HgN/A
3:00 PM6 °FFrigid.6 mph45%30.37 "HgN/A
2:00 PM3 °FFrigid.2 mph49%30.42 "HgN/A
1:00 PM-1 °FFrigid.3 mph54%30.49 "HgN/A
12:00 PM-1 °FFrigid.3 mph53%30.52 "HgN/A
11:00 AM-5 °FFrigid.2 mph62%30.53 "HgN/A
10:00 AM-8 °FFrigid.2 mph69%30.57 "HgN/A
9:00 AM-11 °FExtremely cold.2 mph76%30.60 "HgN/A
8:00 AM-14 °FExtremely cold.3 mph74%30.61 "HgN/A
7:00 AM-16 °FExtremely cold.1 mph73%30.63 "HgN/A
6:00 AM-14 °FExtremely cold.1 mph74%30.64 "HgN/A
5:00 AM-13 °FExtremely cold.2 mph75%30.66 "HgN/A
4:00 AM-12 °FExtremely cold.3 mph75%30.67 "HgN/A
3:00 AM-11 °FExtremely cold.2 mph76%30.68 "HgN/A
2:00 AM-10 °FExtremely cold.2 mph75%30.71 "HgN/A
1:00 AM-10 °FExtremely cold.1 mph74%30.72 "HgN/A
12:00 AM-9 °FFrigid.No wind67%30.72 "HgN/A
11:00 PM
Fri, Feb 12
-7 °FFrigid.2 mph62%30.73 "HgN/A
10:00 PM-8 °FFrigid.3 mph63%30.73 "HgN/A
9:00 PM-7 °FFrigid.2 mph62%30.73 "HgN/A
8:00 PM-7 °FFrigid.3 mph60%30.75 "HgN/A
Weather by CustomWeather, © 2016

See weather overviewHow to use our weather pages